flyin.com alexa rank chart, flyin.com alexa rank daily changes

flyin.com alexa rank chart, flyin.com alexa rank daily changes

flyin.com
Actual rank:
26 578

RANK HISTORY

Date Rank Diff
2017/09/19 26 578 +262
2017/09/18 26 316 -109
2017/09/17 26 425 +384
2017/09/16 26 041 +20
2017/09/15 26 021 +132
2017/09/14 25 889 +111
2017/09/13 25 778 -17
2017/09/12 25 795 +123
2017/09/11 25 672 -13
2017/09/10 25 685 +191
2017/09/09 25 494 -11
2017/09/08 25 505 +105
2017/09/07 25 400 +7
2017/09/06 25 393 -142
2017/09/05 25 535 +217
2017/09/04 25 318 +288
2017/09/03 25 030 +313
2017/09/02 24 717 +179
2017/09/01 24 538 +150
2017/08/31 24 388 -118
2017/08/30 24 506 +25
2017/08/29 24 481 -249
2017/08/28 24 730 -137
2017/08/27 24 867 +91
2017/08/26 24 776 +103
2017/08/25 24 673 -74
2017/08/24 24 747 -1
2017/08/23 24 748 -275
2017/08/22 25 023 -99
2017/08/21 25 122 -108
2017/08/20 25 230 +180
2017/08/19 25 050 -47
2017/08/18 25 097 +240
2017/08/17 24 857 -160
2017/08/16 25 017 -5
2017/08/15 25 022 +154
2017/08/14 24 868 +141
2017/08/13 24 727 +287
2017/08/12 24 440 +2
2017/08/11 24 438 +227
2017/08/10 24 211 +132
2017/08/09 24 079 -154
2017/08/08 24 233 +249
2017/08/07 23 984 +10
2017/08/06 23 974 +255
2017/08/05 23 719 +304
2017/08/04 23 415 -53
2017/08/03 23 468 -142
2017/08/02 23 610 -295
2017/08/01 23 905 -14
2017/07/31 23 919 +148
2017/07/30 23 771 -101
2017/07/29 23 872 -85
2017/07/28 23 957 -162
2017/07/27 24 119 -287
2017/07/26 24 406 -349
2017/07/25 24 755 -119
2017/07/24 24 874 +96
2017/07/23 24 778 +341
2017/07/22 24 437 +306
2017/07/21 24 131

WIDGET FOR YOUR SITE

DOMAINS WITH THE NEAREST RANK

Domain Rank
sto.cc 26 573
classicfm.com 26 574
mec.pt 26 575
zalando-prive.fr 26 576
iskur.gov.tr 26 577
flyin.com 26 578
spreadshirt.de 26 579
garow.me 26 580
497.com 26 581
keitrecker.space 26 582
telegram.hr 26 583

DOMAINS WITH THE NEAREST RANK BY TLD .com

Domain Rank
casetify.com 26 568
girlfriendvideos.com 26 570
writersdigest.com 26 571
mabangerp.com 26 572
classicfm.com 26 574
flyin.com 26 578
497.com 26 581
fhyx.com 26 585
blackboxrepack.com 26 593
datalounge.com 26 594
coverlettersandresume.com 26 595